AirNav   Air Wisconsin pilot careers
 
 293 users online  

M44 Houston Municipal Airport
Houston, Mississippi, USA


FAA INFORMATION EFFECTIVE 04 JANUARY 2018

Location

FAA Identifier: M44
Lat/Long: 33-53-11.3750N / 089-01-22.7300W
33-53.189583N / 089-01.378833W
33.8864931 / -89.0229806
(estimated)
Elevation: 337.7 ft. / 102.9 m (surveyed)
Variation: 02E (1985)
From city: 2 miles SW of HOUSTON, MS
Time zone: UTC -6 (UTC -5 during Daylight Saving Time)
Zip code: 38851

Airport Operations

Airport use: Open to the public
Activation date: 04/1940
Control tower: no
ARTCC: MEMPHIS CENTER
FSS: GREENWOOD FLIGHT SERVICE STATION
NOTAMs facility: GWO (NOTAM-D service available)
Attendance: MON-FRI 24 HOURS/DAY, ALL SAT-SUN ON CALL
FOR ARPT ATTENDANT SAT & SUN CALL 662-456-8484.
Wind indicator: lighted
Segmented circle: yes
Lights: ACTVT MIRL RY 03/21 - CTAF. PAPI RYS 03 & 21 OPER CONTINUOUSLY.
Beacon: white-green (lighted land airport)
Operates sunset to sunrise.

Airport Communications

CTAF: 122.9

Nearby radio navigation aids

VOR radial/distance  VOR name  Freq  Var
OTBr205/23.1TUPELO VOR/DME109.8004E
CBMr297/32.6CALEDONIA VORTAC115.2000E
IGBr309/35.0BIGBEE VORTAC116.2004E

Airport Services

Parking: tiedowns
Bottled oxygen: NONE
Bulk oxygen: NONE

Runway Information

Runway 3/21

Dimensions: 4400 x 75 ft. / 1341 x 23 m
Surface: asphalt, in good condition
Weight bearing capacity: 
Single wheel: 26.0
Runway edge lights: medium intensity
RUNWAY 3  RUNWAY 21
Latitude: 33-52.873833N33-53.505333N
Longitude: 089-01.592833W089-01.164833W
Elevation: 337.7 ft.329.1 ft.
Gradient: 0.3%0.3%
Traffic pattern: leftleft
Markings: basic, in good conditionbasic, in good condition
Visual slope indicator: 2-light PAPI on left (3.00 degrees glide path)2-light PAPI on left (3.00 degrees glide path)
Touchdown point: yes, no lightsyes, no lights
Obstructions: 65 ft. trees, 1510 ft. from runway, 20:1 slope to clear48 ft. trees, 1425 ft. from runway, 200 ft. left of centerline, 25:1 slope to clear

Airport Ownership and Management from official FAA records

Ownership: Publicly-owned
Owner: CITY OF HOUSTON
PO BOX 548
HOUSTON, MS 38851
Phone 662-456-2328
Manager: JACK LEWIS
CITY OF HOUSTON, PO BOX 548
HOUSTON, MS 38851
Phone 662-456-0030
CELL PHONE 662-456-8484.

Airport Operational Statistics

Aircraft based on the field: 11
Single engine airplanes: 10
Ultralights: 1
    
Aircraft operations: avg 42/day *
54% transient general aviation
39% local general aviation
7% military
* for 12-month period ending 11 January 2017

Additional Remarks

FUEL AVBL IN EMERGENCY ONLY; FUEL TANKS PRIVATELY OWNED.

Instrument Procedures

There are no published instrument procedures at M44.

Some nearby airports with instrument procedures:

5A4 - Okolona Municipal Airport-Richard Stovall Field (17 nm NE)
M83 - McCharen Field Airport (25 nm SE)
KTUP - Tupelo Regional Airport (26 nm NE)
M40 - Monroe County Airport (27 nm E)
KSTF - George M Bryan Airport (29 nm S)
 
Loc | Ops | Rwys | IFR | FBO | Links
Com | Nav | Svcs | Stats | Notes


 
Area around M44 (Houston Municipal Airport)
 
Road maps at: MapQuest Bing Google
 
Aerial photo
WARNING: Photo may not be current or correct
Aerial photo of M44 (Houston Municipal Airport)
Do you have a better or more recent aerial photo of Houston Municipal Airport that you would like to share? If so, please send us your photo.

 
Sectional chart

 
Airport distance calculator
Flying to Houston Municipal Airport? Find the distance to fly.

From to M44

Sunrise and sunset
Times for 23-Jan-2018
 Local
(UTC-6)
 Zulu
(UTC)
Morning civil twilight06:3312:33
Sunrise06:5912:59
Sunset17:1723:17
Evening civil twilight17:4323:43

Current date and time
Zulu (UTC)  23-Jan-2018 09:06:06
Local (UTC-6)  23-Jan-2018 03:06:06
 
METAR
KTUP 
26nm NE 
230853Z AUTO 18005KT 10SM CLR 05/M02 A2995 RMK AO2 SLP140 T00501022 52009
KM40 
27nm E 
230855Z AUTO 20005KT 10SM 06/00 A2999 RMK AO2
KSTF 
29nm S 
230835Z AUTO 00000KT 10SM CLR 03/00 A3000 RMK AO2
KCBM 
32nm SE 
230856Z AUTO 23006KT 10SM CLR 06/M01 A2997 RMK AO2 SLP152 T00551006 53006 $
KGTR 
35nm SE 
230856Z AUTO 23004KT 10SM CLR 06/M02 A2999 RMK AO2 SLP157 T00611017 52005
KUOX 
39nm NW 
222215Z AUTO 23012G19KT 200V260 10SM CLR 16/M02 A2980 RMK AO2
K5A6 
43nm SW 
230855Z AUTO 21003KT 10SM CLR 05/M01 A2999 RMK AO2 T00511010
TAF
KTUP 
26nm NE 
230520Z 2306/2406 22007KT P6SM FEW060 FM230700 25005KT P6SM FEW060 FM231700 31011G17KT P6SM BKN050 FM240000 35003KT P6SM SKC
KCBM 
32nm SE 
230200Z 2302/2323 18009KT 9999 BKN012 OVC020 QNH2980INS BECMG 2314/2315 28010G15KT 9999 SKC QNH3010INS TX11/2302Z TN02/2311Z LAST NO AMDS AFT 2302 NEXT 2309
NOTAMs
Click for the latest NOTAMs
NOTAMs are issued by the DoD/FAA and will open in a separate window not controlled by AirNav.

 

 
 

Would you like to see your business listed on this page?

 If your business provides an interesting product or service to pilots, flight crews, aircraft, or users of the Houston Municipal Airport, you should consider listing it here.  To start the listing process, click on the button below
 
Add a business
 

Other Pages about Houston Municipal Airport

Update a link
 
Copyright © AirNav, LLC. All rights reserved. Privacy Policy  Contact